Regional Weather Roundup
Issued by NWS

Home | Current Version | Previous Version | Text Only | Print | Product List | Glossary On
Versions: 1 2 3 4 5 6 7 8 9 10 11 12 13 14 15 16 17 18 19 20 21 22 23 24 25 26 27 28 29 30 31 32 33 34 35 36 37 38 39 40 41 42 43 44 45 46 47 48 49 50
890
ASUS42 KTBW 171516
RWRFL
FLORIDA REGIONAL WEATHER ROUNDUP
NATIONAL WEATHER SERVICE TAMPA BAY RUSKIN FL
1100 AM EDT TUE OCT 17 2017

NOTE: "FAIR" INDICATES FEW OR NO CLOUDS BELOW 12,000 FEET WITH NO
SIGNIFICANT WEATHER AND/OR OBSTRUCTIONS TO VISIBILITY.

FLZ001>010-012>015-112-114-115-171600-
PANHANDLE FLORIDA

CITY           SKY/WX    TMP DP  RH WIND       PRES   REMARKS
PENSACOLA      SUNNY     68  52  56 E9G22     30.19R
PENSACOLA NAS  MOSUNNY   67  53  61 NE14      30.18R
MILTON NAS     MOSUNNY   66  51  58 E13       30.20
CRESTVIEW      SUNNY     67  49  52 E12G20    30.22R
DUKE FIELD     MOSUNNY   67  50  54 NE10      30.19R
VALPARAISO     MOSUNNY   68  49  51 NE16      30.18R
MARY ESTHER    MOSUNNY   70  54  56 NE13      30.18R
PANAMA CITY    FAIR      68  51  54 N17G23    30.17R
TYNDALL AFB    SUNNY     68  53  58 E13G21    30.16R
APALACHICOLA   MOSUNNY   68  57  68 NE10G22   30.15R

STATION/POSITION SKY/WX   TEMP    WIND        PRES    WAVE   SWELL
                          AIR SEA DIR/SP/G            HT/PER HT/PER
                          (F)     (DEG/KT/KT) (MB)    (FT/S) (FT/S)
30.1N   87.6W              67 79   70/ 19/ 23 1020.9R   5/ 6
29.2N   88.2W              75 82   50/ 16/ 19 1020.3
28.8N   86.0W              78 82   70/ 19/ 23 1018.3R   7/ 7
PANAMA CITY BEAC           67 77   80/ 10/ 20 1022.0R
TOWER C                    69      70/ 24/ 26 1020.7R
28.5N   84.5W              76 82   60/ 19/ 25 1018.2R   7/ 6

$$
FLZ011-016>038-118-127-128-134-139-239-171600-
NORTH FLORIDA

CITY           SKY/WX    TMP DP  RH WIND       PRES   REMARKS
MARIANNA       LGT RAIN  67  46  47 NE20G25   30.21R
TALLAHASSEE    PTSUNNY   68  54  60 NE12G20   30.20R
LIVE OAK       CLOUDY    66  55  68 N12       30.21R
CROSS CITY     CLOUDY    71  61  71 NE10G22   30.18S
LAKE CITY      PTSUNNY   64  59  82 NE8       30.18S
GAINESVILLE    CLOUDY    72  62  71 N15       30.16S
WILLISTON      MOSUNNY   73  68  83 N13G18    30.12F
PALATKA        CLOUDY    73  68  83 NE10G17   30.14R
MAYPORT NAS    CLOUDY    75  65  70 NE18G32   30.15R
JACKSONVILLE   CLOUDY    73  64  73 NE17      30.17R
JAX NAS        CLOUDY    74  65  73 NE20      30.16R
JAX CECIL      PTSUNNY   68  61  77 N10       30.15S
ST AUGUSTINE   CLOUDY    74  67  78 N21G26    30.14R HAZE
PALM COAST     CLOUDY    75  70  83 N18G24    30.10S

STATION/POSITION SKY/WX   TEMP    WIND        PRES    WAVE   SWELL
                          AIR SEA DIR/SP/G            HT/PER HT/PER
                          (F)     (DEG/KT/KT) (MB)    (FT/S) (FT/S)
SHELL POINT      NOT AVBL
KEATON BEACH               65      40/ 13/ 19 1020.3R
CEDAR KEY                  71      50/ 16/ 19 1019.8R
FERNANDINA                 72 79   20/ 10/ 18 1022.4R
30.7N   81.3W                 80                N/A     7/ 7   2/11
MAYPORT                    73 80   40/ 19/ 26 1021.5R
31.4N   80.9W              69 79   50/ 23/ 29 1021.9R   7/ 6
ST AUGUSTINE               75 80   20/ 29/ 32 1020.0R

$$
FLZ040-043>046-052-053-057-058-063-144-171600-
INTERIOR CENTRAL FLORIDA

CITY           SKY/WX    TMP DP  RH WIND       PRES   REMARKS
THE VILLAGES     N/A     75  73  94 NE10G17   30.00S
LEESBURG       PTSUNNY   77  72  84 NE13      30.09S
SANFORD        CLOUDY    78  71  79 N14       30.08R
ORLANDO EXEC   MOSUNNY   79  72  78 NE12      30.08R
ORLANDO INTL   CLOUDY    77  71  82 NE15      30.07S
KISSIMMEE      CLOUDY    78  71  79 NE9       30.08S
WINTER HAVEN   CLOUDY    77  70  79 NE13      30.08S
LAKELAND       CLOUDY    75  73  94 NE9       30.08S
BARTOW         PTSUNNY   77  72  83 NE12      30.08S
SEBRING        FAIR      83  71  68 NE8       30.06S
OKEECHOBEE     PTSUNNY   79  72  78 NE6       30.04F

$$
FLZ041-047-054-059-064-141-147-171600-
EAST CENTRAL FLORIDA

CITY           SKY/WX    TMP DP  RH WIND       PRES   REMARKS
ORMOND BEACH   RAIN      73  72  94 N9        30.10R FOG
DAYTONA BEACH  LGT RAIN  76  76 100 NE15      30.09R
DELAND         CLOUDY    75  72  88 N14G25    30.09S
NEW SMYRNA BEA MOSUNNY   77  72  83 NE10      30.09R
JFK SPACE CTR  CLOUDY    80  77  91 N9        30.05S
TITUSVILLE     PTSUNNY   82  75  78 N12       30.07
CAPE CANAVERAL CLOUDY    82  73  72 N7        30.04S
PATRICK AFB    CLOUDY    79  72  78 N8        30.05R
MELBOURNE      PTSUNNY   82  73  74 NE10      30.05S
VERO BEACH     PTSUNNY   81  74  79 NE10      30.05R
FT PIERCE      MOSUNNY   83  74  74 NE10      30.04S
STUART         MOSUNNY   84  73  70 N8        30.06R

STATION/POSITION SKY/WX   TEMP    WIND        PRES    WAVE   SWELL
                          AIR SEA DIR/SP/G            HT/PER HT/PER
                          (F)     (DEG/KT/KT) (MB)    (FT/S) (FT/S)
28.5N   80.2W              81 84   50/ 12/ 14 1017.4R   3/ 9   3/ 9
TRIDENT PIER               81 82   20/  6/  9 1019.5R
28.4N   80.5W                 81                N/A     2/11   2/11
27.5N   80.2W                 82                N/A     3/11   2/11

$$
FLZ050-056-061-142-242-148-248-149-249-151-251-155-255-
160-260-171600-
WEST CENTRAL FLORIDA

CITY           SKY/WX    TMP DP  RH WIND       PRES   REMARKS
CRYSTAL RIVER  CLOUDY    72  68  88 NE9       30.10S
INVERNESS      CLOUDY    73  70  88 NE14      30.10F
BROOKSVILLE    CLOUDY    76  69  79 NE14      30.08F
CLEARWATER AIR PTSUNNY   73  70  88 E9        30.06F
ST PETE CLEARW CLOUDY    77  72  84 NE12      30.07S
TAMPA INTL     CLOUDY    75  71  87 NE12G17   30.08S
TAMPA EXEC     DRIZZLE   73  73 100 NE6       30.08S
PLANT CITY     CLOUDY    73  72  94 NE9       30.09F
MACDILL AFB      N/A    N/A N/A N/A MISG        N/A
PETER O KNIGHT CLOUDY    72  72 100 NE13      30.07S
ST PETERSBURG  CLOUDY    74  72  93 NE18      30.05F
SARASOTA       CLOUDY    79  71  76 NE13      30.03F
VENICE         FAIR      77  72  83 NE13      30.05S

STATION/POSITION SKY/WX   TEMP    WIND        PRES    WAVE   SWELL
                          AIR SEA DIR/SP/G            HT/PER HT/PER
                          (F)     (DEG/KT/KT) (MB)    (FT/S) (FT/S)
CLEARWATER BEACH           75 82   60/ 11/ 15 1018.2F
MIDDLE TAMPA BAY           74      90/ 16/ 19 1018.0F
VENICE                     76 83   60/ 11/ 14 1017.4S

$$
FLZ066-069-070-075>078-162-262-165-265-171600-
SOUTHWEST FLORIDA AND KEYS

CITY           SKY/WX    TMP DP  RH WIND       PRES   REMARKS
PUNTA GORDA    MOSUNNY   80  71  74 MISG      30.06F
FT MYERS       CLOUDY    78  75  90 NE10      30.03F
SOUTHWEST INTL CLOUDY    82  75  79 NE9       30.04S
NAPLES         CLOUDY    83  75  77 NE9       30.02S
MARCO ISLAND     N/A     83  74  74 NE9       30.03S
IMMOKALEE      FAIR      84  73  70 NE9       30.05S
MARATHON       MOSUNNY   87  72  60 E9        30.01R
KEY WEST NAS   MOSUNNY   86  79  79 E12       30.01  HX  99
KEY WEST INTL  PTSUNNY   86  76  71 NE7       30.01R HX  96

STATION/POSITION SKY/WX   TEMP    WIND        PRES    WAVE   SWELL
                          AIR SEA DIR/SP/G            HT/PER HT/PER
                          (F)     (DEG/KT/KT) (MB)    (FT/S) (FT/S)
NAPLES                        84   50/  5/  8 1016.7R
DRY TORTUGAS               83      90/  7/  8 1016.4R
SAND KEY                   82                 1016.9R
MOLASSES REEF              82 84   70/  9/ 10 1016.7R

$$
FLZ067-068-071>074-168-172>174-171600-
SOUTHEAST FLORIDA

CITY           SKY/WX    TMP DP  RH WIND       PRES   REMARKS
W PALM BEACH   MOSUNNY   84  73  69 NE9       30.04S
BOCA RATON     MOSUNNY   86  73  66 NE7       30.03R
FT LAUDER-EXEC MOSUNNY   84  74  71 NE6       30.03R
FT LAUDERDALE  PTSUNNY   84  76  76 E8        30.02R
POMPANO BEACH  MOSUNNY   86  74  67 NE7       30.03R
PEMBROKE PINES MOSUNNY   87  74  64 NE7       30.04R HX  95
OPA LOCKA      SUNNY     86  74  67 VRB5      30.03R
MIAMI          PTSUNNY   85  74  69 NE6       30.02S
WEST KENDALL   MOSUNNY   85  73  67 NE8       30.02S
HOMESTEAD      MOSUNNY   85  76  76 E8        30.02S

STATION/POSITION SKY/WX   TEMP    WIND        PRES    WAVE   SWELL
                          AIR SEA DIR/SP/G            HT/PER HT/PER
                          (F)     (DEG/KT/KT) (MB)    (FT/S) (FT/S)
PORT EVERGLADES            83      40/  6/  9 1017.0R
VIRGINIA KEY               83 84   50/  7/  8 1016.6R
LAKE WORTH                 81 84   10/  9/ 11 1018.1R
FOWEY ROCKS                82 83   40/  8/  9 1017.4R
SETTLEMENT POINT           81      30/  8/  9 1017.6R

$$





USA.gov is the U.S. government's official web portal to all federal, state and local government web resources and services.